[[{"header":{"parameterUnit":"m.s-1","parameterCategory":1,"la1":30.2991,"la2":30.254,"lo1":-89.0895,"lo2":-89.0444,"dy":0.0017,"dx":0.0017,"nx":28,"ny":28,"refTime":"2025-11-12T03:00:00:Z","depth":0,"parameterNumber":2,"parameterNumberName":"U-component_of_WINDS"},"data":[0,0,0,0,0,0,0,0,0,0,0,0,0,0,0,0,0,0,0,0,0,0,0,0,0,0,0,0,0,0,0,0,0,0,0,0,0,0,0,0,0,0,0,0,0,0,0,0,0,0,0,0,0,0,0,0,0,0,1.6855,1.6854,0,1.6801,1.68,1.68,1.672,1.6719,1.6717,1.6716,1.6661,1.6661,1.6661,0,0,0,0,0,0,0,0,0,0,0,0,0,1.6888,1.6888,1.6855,1.6854,1.6853,1.6801,1.68,1.6799,1.672,1.6719,1.6717,1.6715,1.6661,1.6661,1.6661,0,0,0,0,0,0,0,0,0,0,0,0,0,1.6858,1.6888,1.6855,1.6808,1.6803,1.6801,1.68,1.6799,1.6721,1.6718,1.6716,1.6714,1.6661,1.6661,1.6661,1.6701,0,0,1.666,1.666,0,0,0,0,0,0,0,0,1.686,1.6857,1.6815,1.6811,1.6805,1.6765,1.6792,1.6766,1.6721,1.6752,1.6716,1.6713,1.6697,1.6694,1.6689,1.6699,1.6696,1.666,1.666,1.666,1.666,0,0,0,0,0,0,0,1.6862,1.6859,1.6833,1.6815,1.6809,1.6789,1.6782,1.6787,1.6737,1.6749,1.6743,1.6738,1.6694,1.6689,1.6687,1.6696,1.666,1.666,1.666,1.666,1.6733,1.6735,0,0,0,0,0,0,1.6871,1.6861,1.6835,1.6832,1.6828,1.679,1.6782,1.678,1.6737,1.6728,1.674,1.6734,1.669,1.6687,1.6685,1.6726,1.666,1.666,1.666,1.6731,1.6733,1.6735,0,0,0,0,0,0,1.6872,1.687,1.6837,1.6845,1.6839,1.6791,1.6789,1.678,1.6774,1.673,1.672,1.6743,1.6689,1.6685,1.6697,1.6723,1.666,1.6659,1.6728,1.6731,1.6734,1.6811,0,0,0,0,0,0,1.6874,1.6871,1.6886,1.6846,1.6839,1.6851,1.6791,1.6781,1.6774,1.6767,1.6731,1.6723,1.6687,1.6698,1.6697,1.6722,1.6659,1.6726,1.673,1.6733,1.6806,1.6817,1.6826,0,0,0,0,0,1.6875,1.691,1.6887,1.6884,1.6857,1.6853,1.6849,1.6807,1.6777,1.6791,1.6762,1.6724,1.6721,1.67,1.6698,1.6723,1.6724,1.6728,1.6733,1.6802,1.6815,1.6826,0,0,0,0,0,0,1.6955,1.6904,1.6878,1.6901,1.6882,1.6839,1.6856,1.6822,1.6811,1.6804,1.6753,1.6745,1.6763,1.6745,1.6722,1.6758,1.6716,1.6721,1.6769,1.6781,1.6791,1.6794,1.6659,0,0,0,0,0,1.6976,1.6976,1.6932,1.6957,1.6949,1.6904,1.6901,1.687,1.6848,1.6839,1.6811,1.6791,1.6785,1.6783,1.6775,1.6804,1.6793,1.6821,1.683,1.6839,1.6842,1.6853,1.6864,1.6751,1.6751,1.6751,0,0,1.7018,1.699,1.6994,1.6972,1.6954,1.6955,1.6898,1.6902,1.6902,1.684,1.6848,1.6828,1.6802,1.6822,1.6829,1.6807,1.6871,1.6845,1.6851,1.685,1.6859,1.687,1.6879,1.6754,1.6753,1.6753,0,0,1.7094,1.7074,1.7091,1.7074,1.7046,1.7016,1.702,1.6983,1.6966,1.6974,1.6926,1.6926,1.6918,1.69,1.6891,1.6959,1.6923,1.6959,1.7009,1.702,1.7029,1.7036,1.7058,1.7067,1.6963,1.6963,1.6963,0,1.7149,1.7149,1.7105,1.7111,1.7102,1.7046,1.7061,1.7047,1.7018,1.7013,1.6989,1.6976,1.6955,1.6968,1.6985,1.698,1.6981,1.6961,1.7031,1.7038,1.7045,1.7064,1.7073,1.6968,1.6967,1.6967,1.6966,0,1.7217,1.7218,1.7235,1.7208,1.7201,1.7213,1.7169,1.7168,1.7138,1.711,1.7118,1.7091,1.7075,1.7077,1.7048,1.7086,1.7072,1.7041,1.6997,1.706,1.7078,1.7086,1.6974,1.6972,1.6971,1.697,0,0,1.7341,1.7288,1.7295,1.7281,1.7246,1.7245,1.7254,1.7239,1.7237,1.722,1.7224,1.7218,1.7188,1.7177,1.7145,1.7156,1.7208,1.7122,1.7121,1.7136,1.7244,1.7266,1.7276,1.7185,1.7186,1.7187,1.7245,0,1.7408,1.7419,1.7378,1.7399,1.7398,1.7345,1.7352,1.7331,1.7305,1.73,1.7272,1.7267,1.723,1.7222,1.723,1.72,1.7228,1.7196,1.7186,1.7186,1.7191,1.7286,1.7309,1.7365,1.7252,1.7253,1.7254,0,1.7487,1.7473,1.7493,1.7455,1.7453,1.746,1.7441,1.7438,1.7413,1.7393,1.7381,1.7344,1.7348,1.7309,1.7313,1.7291,1.7285,1.727,1.7271,1.7266,1.7222,1.728,1.7383,1.739,1.7265,1.7265,1.7264,0,1.7572,1.7558,1.7567,1.7557,1.7514,1.752,1.7502,1.7474,1.7467,1.7451,1.7445,1.7431,1.7422,1.7411,1.7371,1.7346,1.7379,1.7336,1.7361,1.7362,1.7368,1.7368,1.7468,1.737,1.737,1.737,1.7369,0,1.7649,1.7663,1.7604,1.761,1.7623,1.7577,1.7592,1.7569,1.7544,1.7544,1.7498,1.7498,1.7447,1.7441,1.741,1.7417,1.7414,1.7397,1.7388,1.74,1.7401,1.7393,1.7387,1.7372,1.7371,1.7371,1.737,0,1.7744,1.7706,1.7712,1.767,1.766,1.7672,1.7636,1.7639,1.7611,1.761,1.7608,1.7563,1.7554,1.7514,1.7496,1.7475,1.749,1.7475,1.7499,1.7492,1.7518,1.7515,1.7614,1.7623,1.7522,1.7523,1.7524,0,1.7794,1.7803,1.7762,1.7759,1.7743,1.7738,1.7729,1.7684,1.7678,1.7649,1.7655,1.7642,1.7629,1.7617,1.7582,1.7567,1.7549,1.7585,1.7547,1.7557,1.7546,1.7545,1.7544,1.7592,1.7594,1.7595,1.7596,0,1.7886,1.7866,1.7857,1.784,1.7831,1.7816,1.7798,1.7798,1.7747,1.7742,1.7732,1.7722,1.7702,1.7689,1.7668,1.7649,1.7613,1.7608,1.7613,1.7623,1.7635,1.7626,1.7518,1.7606,1.7605,1.7604,1.7603,1.7603,1.7958,1.7963,1.7934,1.7924,1.7906,1.789,1.789,1.7861,1.7852,1.7832,1.7807,1.7799,1.7772,1.774,1.7724,1.7716,1.7697,1.7704,1.7705,1.7707,1.7711,1.7639,1.7713,1.7713,1.7712,1.7712,1.7712,0,1.8045,1.8024,1.8015,1.7991,1.7983,1.7951,1.7929,1.7924,1.7918,1.7896,1.7883,1.7871,1.7858,1.7822,1.7805,1.7806,1.7789,1.7803,1.7801,1.7796,1.7731,1.7728,1.7817,1.7817,1.7817,1.7817,1.7817,1.7817,1.8089,1.8094,1.8071,1.8067,1.8045,1.8037,1.8027,1.8011,1.7993,1.7981,1.797,1.7947,1.7919,1.7899,1.7885,1.7875,1.7869,1.7888,1.7872,1.7812,1.7801,1.7792,1.7788,1.7888,1.7888,1.7937,1.7938,1.7938]},{"header":{"parameterUnit":"m.s-1","parameterCategory":1,"la1":30.2991,"la2":30.254,"lo1":-89.0895,"lo2":-89.0444,"dy":0.0017,"dx":0.0017,"nx":28,"ny":28,"refTime":"2025-11-12T03:00:00:Z","depth":0,"parameterNumber":3,"parameterNumberName":"V-component_of_WINDS"},"data":[0,0,0,0,0,0,0,0,0,0,0,0,0,0,0,0,0,0,0,0,0,0,0,0,0,0,0,0,0,0,0,0,0,0,0,0,0,0,0,0,0,0,0,0,0,0,0,0,0,0,0,0,0,0,0,0,0,0,0.8275,0.8276,0,0.8296,0.8296,0.8296,0.829,0.829,0.8289,0.8289,0.831,0.8311,0.8312,0,0,0,0,0,0,0,0,0,0,0,0,0,0.8229,0.823,0.8275,0.8276,0.8276,0.8296,0.8296,0.8297,0.829,0.829,0.8289,0.8289,0.831,0.8311,0.8312,0,0,0,0,0,0,0,0,0,0,0,0,0,0.8249,0.823,0.8275,0.8275,0.8275,0.8296,0.8296,0.8297,0.829,0.829,0.8289,0.8288,0.8309,0.8311,0.8312,0.8334,0,0,0.8317,0.8317,0,0,0,0,0,0,0,0,0.8248,0.8251,0.8275,0.8275,0.8275,0.829,0.8288,0.8309,0.8291,0.8285,0.8289,0.8288,0.8304,0.8306,0.8311,0.8335,0.8336,0.8317,0.8318,0.8318,0.8319,0,0,0,0,0,0,0,0.8247,0.825,0.8283,0.8275,0.8276,0.8273,0.8276,0.8292,0.8298,0.8285,0.8285,0.8287,0.8304,0.831,0.8311,0.8336,0.8317,0.8318,0.8319,0.8319,0.8377,0.8378,0,0,0,0,0,0,0.8245,0.8249,0.8283,0.8284,0.826,0.8275,0.8277,0.8286,0.8297,0.8299,0.8288,0.8287,0.8307,0.831,0.8312,0.8337,0.8318,0.8319,0.832,0.8376,0.8377,0.8378,0,0,0,0,0,0,0.8244,0.8248,0.8282,0.8266,0.8271,0.8276,0.8286,0.8287,0.8292,0.8299,0.83,0.8293,0.8307,0.831,0.8328,0.8338,0.832,0.8321,0.8376,0.8377,0.8377,0.8388,0,0,0,0,0,0,0.8243,0.8248,0.8257,0.8267,0.8271,0.8298,0.8287,0.8287,0.8295,0.8294,0.8304,0.8305,0.8307,0.8326,0.833,0.834,0.8323,0.8375,0.8376,0.8377,0.8387,0.839,0.8392,0,0,0,0,0,0.8241,0.826,0.8258,0.8262,0.8283,0.8299,0.8302,0.8303,0.8296,0.8304,0.8308,0.8305,0.8336,0.8328,0.8332,0.8342,0.8374,0.8376,0.8377,0.8386,0.8389,0.8392,0,0,0,0,0,0,0.8252,0.8261,0.8259,0.8281,0.8289,0.8298,0.8309,0.8306,0.8317,0.8315,0.8316,0.8319,0.8337,0.8341,0.8332,0.8363,0.8354,0.8356,0.836,0.8362,0.8365,0.8363,0.8324,0,0,0,0,0,0.8257,0.8269,0.8277,0.8295,0.8299,0.8303,0.8311,0.831,0.8319,0.8323,0.8328,0.8336,0.8348,0.8355,0.8366,0.8388,0.8389,0.8397,0.8399,0.8401,0.8403,0.8412,0.8416,0.8383,0.8383,0.8383,0,0,0.8267,0.8273,0.8282,0.8297,0.8304,0.8316,0.8306,0.832,0.8329,0.8325,0.8342,0.8346,0.8355,0.8374,0.8383,0.8379,0.8412,0.8403,0.8404,0.8405,0.8414,0.8417,0.842,0.8384,0.8384,0.8383,0,0,0.8292,0.8298,0.8314,0.832,0.8329,0.8331,0.8335,0.8344,0.8346,0.8363,0.8359,0.837,0.839,0.8396,0.8402,0.8426,0.8423,0.8429,0.8441,0.8451,0.8453,0.8456,0.8463,0.8466,0.8431,0.8431,0.8431,0,0.8303,0.8322,0.8322,0.8336,0.8342,0.8338,0.8353,0.8359,0.8371,0.8376,0.837,0.8394,0.84,0.842,0.8425,0.8431,0.8434,0.8428,0.8453,0.8455,0.8457,0.8465,0.8468,0.8432,0.8432,0.8432,0.8432,0,0.8335,0.8348,0.8359,0.837,0.8378,0.8392,0.8394,0.8402,0.84,0.8403,0.8419,0.8426,0.8437,0.8442,0.8441,0.8461,0.8458,0.8453,0.8444,0.8461,0.8468,0.8471,0.8433,0.8433,0.8433,0.8433,0,0,0.8369,0.8378,0.8382,0.8386,0.8395,0.8405,0.8418,0.8429,0.8435,0.8443,0.8453,0.8469,0.8464,0.8471,0.8471,0.8479,0.8496,0.8473,0.8473,0.8476,0.8517,0.852,0.8523,0.8494,0.8494,0.8495,0.8515,0,0.8393,0.8417,0.8416,0.8438,0.8448,0.8443,0.8454,0.8461,0.8463,0.8472,0.8474,0.8485,0.8478,0.8482,0.849,0.8492,0.8504,0.8491,0.8503,0.8503,0.85,0.8527,0.8531,0.855,0.8518,0.8519,0.8519,0,0.8426,0.8434,0.8456,0.8461,0.8466,0.8476,0.8485,0.8494,0.85,0.8501,0.8507,0.8505,0.8517,0.8507,0.8524,0.8515,0.8519,0.8521,0.8522,0.8523,0.8512,0.8528,0.8556,0.8559,0.8523,0.8523,0.8523,0,0.8446,0.8463,0.8478,0.8482,0.8489,0.8496,0.8499,0.8504,0.851,0.8518,0.8521,0.853,0.8535,0.8542,0.8541,0.8535,0.8558,0.8548,0.8558,0.8558,0.8563,0.8563,0.8592,0.8567,0.8567,0.8567,0.8567,0,0.8474,0.8488,0.8487,0.8496,0.8511,0.8509,0.8524,0.8526,0.8531,0.854,0.8536,0.8544,0.8544,0.8552,0.8552,0.8565,0.8567,0.8567,0.8567,0.8568,0.8567,0.8571,0.8569,0.8568,0.8567,0.8567,0.8567,0,0.85,0.85,0.8516,0.852,0.8522,0.8532,0.8536,0.8544,0.8545,0.8556,0.8558,0.856,0.8569,0.857,0.8581,0.858,0.8596,0.8594,0.8594,0.8593,0.8602,0.8601,0.8635,0.8638,0.8611,0.8611,0.8612,0,0.8517,0.8527,0.8532,0.8537,0.8541,0.855,0.8555,0.8554,0.8559,0.8566,0.8573,0.8582,0.8589,0.8604,0.8606,0.8614,0.8612,0.8623,0.8613,0.8612,0.8611,0.861,0.861,0.8625,0.8625,0.8625,0.8626,0,0.8548,0.8547,0.8554,0.8562,0.8568,0.8574,0.8579,0.8584,0.8583,0.8589,0.8598,0.8604,0.8614,0.8622,0.8629,0.8632,0.8628,0.8628,0.8631,0.8631,0.863,0.863,0.8598,0.8628,0.8628,0.8627,0.8627,0.8627,0.8569,0.8577,0.8581,0.8589,0.8593,0.8597,0.8605,0.8606,0.8613,0.8621,0.862,0.863,0.8634,0.8643,0.8646,0.8653,0.865,0.8653,0.8654,0.8655,0.8656,0.8629,0.8655,0.8655,0.8655,0.8655,0.8655,0,0.8598,0.86,0.8608,0.8615,0.8621,0.8616,0.8621,0.8626,0.8635,0.8639,0.8645,0.8655,0.8662,0.8664,0.8671,0.8677,0.8675,0.8678,0.8678,0.8678,0.8659,0.8656,0.868,0.868,0.868,0.8679,0.8679,0.8679,0.8614,0.8627,0.8626,0.864,0.8641,0.8651,0.8654,0.8657,0.866,0.8671,0.8677,0.8678,0.8681,0.8687,0.8694,0.8694,0.8696,0.8701,0.87,0.8682,0.868,0.8677,0.8674,0.8701,0.8701,0.8718,0.8718,0.8718]}]]